Wind_Speed
3 3 3 4 5 5 5 5 5 6 6 6 6 6 6 6 6 7 8 8 8 9 10 10 11 11 11 12 12 12 12 13 12 12 12 12 12 13 13 13 13 13 13
4 3 4 4 5 5 5 5 5 5 5 5 5 5 5 5 6 7 8 8 9 9 9 9 9 10 10 10 11 11 12 12 13 12 13 12 13 13 13 13 13 13 13
4 4 4 4 5 5 5 5 5 5 5 5 5 5 5 5 6 6 7 7 8 8 8 8 8 9 10 10 10 11 11 11 12 13 13 13 13 13 13 13 14 14 14
4 4 4 4 5 5 4 4 5 5 5 5 5 5 5 5 5 6 6 7 7 7 7 7 8 8 9 10 11 11 11 12 13 13 14 14 14 14 14 14 14 15 14
4 4 4 4 5 5 4 4 5 6 6 5 5 5 5 5 6 6 6 6 7 7 7 7 8 8 9 10 11 12 12 12 13 14 14 14 14 14 15 14 14 14 15
5 4 4 4 5 5 4 5 6 6 6 6 5 5 4 4 5 6 6 6 6 7 7 7 8 8 9 9 10 11 12 12 13 14 14 14 14 15 15 15 15 15 15
5 5 5 5 5 4 4 5 6 6 6 5 5 4 4 4 5 6 6 6 6 7 7 8 8 9 10 10 11 12 12 12 12 13 14 14 15 15 16 16 16 16 16
6 6 5 5 5 4 4 5 6 6 5 5 4 4 4 4 4 5 5 5 6 7 7 7 8 10 11 11 12 13 13 12 13 13 14 15 16 16 16 16 16 16 16
6 6 5 4 4 4 5 5 6 6 5 5 4 4 4 4 4 4 5 5 6 6 7 7 8 9 10 11 11 12 13 14 14 14 14 15 15 15 16 17 17 18 18
6 6 5 5 4 4 5 5 5 5 5 5 4 4 4 4 4 4 4 5 5 6 6 7 7 8 8 9 10 11 12 13 14 15 14 14 15 15 16 17 18 18 18
6 6 5 5 4 4 5 5 5 5 5 4 4 4 4 4 5 5 5 5 6 6 6 7 7 7 7 8 9 10 11 13 14 14 15 16 16 17 17 18 18 19 20
5 5 5 5 5 5 5 5 5 5 5 4 4 5 5 5 5 5 6 6 6 7 7 8 7 7 7 8 9 10 11 13 14 15 16 17 17 18 19 19 20 20 21
5 5 5 5 5 6 6 6 5 5 5 5 5 5 6 6 6 6 7 7 7 8 8 8 8 7 8 8 9 11 12 13 14 15 16 16 18 19 19 20 20 21 21
6 6 6 6 6 6 6 5 5 5 5 5 5 5 6 7 7 7 7 7 7 7 7 7 7 8 8 9 9 10 11 12 14 15 16 16 17 18 19 20 20 21 21
7 7 7 7 6 6 6 5 6 6 5 5 5 5 6 7 7 7 7 7 7 7 7 7 8 9 9 9 10 10 10 12 13 14 15 16 17 17 18 19 20 20 21
7 7 6 7 6 6 6 6 6 6 6 6 6 6 7 7 7 7 7 8 8 8 9 9 9 10 10 10 11 11 12 12 13 14 15 16 16 17 19 20 20 20 21
8 7 7 7 7 7 7 7 7 7 7 7 7 8 8 8 8 8 8 9 9 9 10 10 10 11 12 13 13 13 13 14 14 15 15 16 17 18 19 20 21 22 21
9 8 8 8 8 8 8 8 7 7 7 8 8 9 9 9 9 10 10 10 10 11 11 12 12 13 13 13 14 14 15 15 15 16 16 17 17 18 19 20 21 23 23
11 10 10 10 10 9 9 9 9 8 9 9 10 10 10 11 11 12 12 12 12 12 12 13 14 14 14 15 15 15 15 15 16 17 17 18 18 19 19 20 21 22 23
11 11 10 11 11 11 11 10 10 10 10 11 11 12 12 12 12 12 13 13 13 13 14 14 15 15 16 16 16 15 15 16 17 18 18 19 20 20 21 22 23 24 25
12 12 11 11 12 13 12 12 12 12 12 13 13 13 13 13 13 13 13 14 15 15 15 16 16 16 17 16 16 17 17 18 19 20 21 22 23 24 25 26 26 27 28
12 12 12 13 14 14 14 14 14 15 15 15 15 15 15 15 15 15 15 16 16 17 17 17 18 18 18 19 19 20 20 21 22 24 25 25 27 27 28 29 29 30 31
13 14 13 14 15 15 15 15 16 16 16 17 17 16 17 17 18 18 18 18 18 18 19 20 20 21 21 22 22 24 25 25 26 27 28 29 30 30 31 31 32 33 33
14 15 15 15 15 16 16 17 17 17 18 18 18 18 18 19 19 19 20 20 21 21 21 22 22 23 24 25 26 27 28 29 30 31 31 32 33 33 34 35 36 36 36
16 16 16 16 16 17 17 18 18 18 19 19 20 20 20 20 20 21 21 22 22 23 23 24 25 26 26 27 28 29 30 31 32 33 34 35 35 35 35 36 36 37 37
17 16 17 17 17 17 18 19 19 20 20 21 21 22 22 22 22 22 22 23 24 25 25 26 27 28 29 30 31 32 33 33 34 35 35 35 35 35 35 35 36 36 36
Wind_Direction
302 313 324 324 319 319 323 323 311 304 299 288 281 276 271 263 252 247 243 241 242 243 243 240 241 240 239 236 236 238 241 242 239 237 236 237 239 240 243 243 244 244 247
299 313 322 326 325 326 323 320 314 309 306 295 287 280 272 266 261 256 250 246 248 248 245 243 242 237 236 235 236 236 238 239 240 238 237 237 239 241 244 243 242 246 248
299 306 316 323 325 324 326 325 319 314 306 294 288 281 270 263 263 259 257 252 250 248 246 243 242 238 236 238 236 234 235 239 240 239 240 240 243 244 244 244 246 248 248
298 302 313 320 323 325 328 326 322 321 314 299 289 281 270 264 260 258 258 256 251 250 247 246 245 245 245 243 242 240 238 240 241 241 242 243 245 246 247 249 249 250 251
296 298 304 312 320 320 321 327 325 322 317 304 290 282 271 261 259 256 255 256 253 250 249 251 251 249 246 243 243 242 241 242 243 242 244 245 246 248 248 250 254 254 255
287 292 298 301 307 313 319 326 327 324 319 308 295 282 272 264 257 255 253 253 251 252 254 256 257 256 251 246 246 244 245 245 245 246 247 248 247 247 248 250 254 256 258
278 286 296 299 301 308 318 324 328 326 323 310 294 282 276 267 257 254 253 253 252 255 259 261 262 261 257 255 251 248 248 248 248 248 248 248 249 249 250 252 254 255 258
275 282 287 292 296 304 315 323 327 326 323 312 297 285 273 269 263 262 261 260 259 260 262 263 264 265 262 260 256 252 249 248 248 251 251 251 252 252 252 253 254 255 257
276 283 281 282 291 297 304 315 323 321 319 312 299 288 276 269 272 269 271 268 266 267 270 273 274 271 267 261 255 249 245 246 249 253 256 256 255 253 252 253 255 255 256
271 274 273 273 282 292 297 306 314 316 313 311 302 288 278 269 272 274 270 267 268 271 272 277 284 283 278 270 262 255 250 251 254 255 256 258 257 256 256 255 256 256 258
268 268 269 270 276 288 296 299 305 310 307 304 301 289 280 276 279 279 273 272 276 276 275 279 288 289 285 277 271 265 266 261 259 260 259 259 258 257 257 259 260 260 261
263 266 270 270 277 285 292 297 298 300 298 295 292 286 285 286 284 283 277 278 281 282 282 280 284 282 281 277 272 270 269 267 264 264 263 260 258 259 260 262 263 264 264
254 260 267 272 279 285 289 293 296 295 293 290 284 288 290 291 290 286 282 284 284 284 284 284 281 281 279 277 273 274 272 267 268 268 269 266 263 262 262 263 265 266 266
256 260 263 269 278 283 289 291 295 295 294 291 292 293 294 294 293 289 288 288 286 284 283 279 278 279 281 284 286 284 282 279 276 273 271 270 268 267 265 265 266 268 268
256 260 261 264 271 277 286 291 293 295 296 296 299 301 304 301 297 291 292 291 290 287 284 279 279 279 281 284 287 287 288 289 284 279 275 274 271 269 269 269 269 269 270
253 254 260 264 267 273 281 288 291 289 291 291 293 296 298 300 299 298 295 292 291 289 289 285 282 281 283 286 289 290 291 291 287 284 282 279 276 274 272 271 272 273 272
251 252 255 264 264 271 278 284 288 287 288 290 292 292 293 295 295 294 293 293 292 292 292 292 289 287 287 287 289 290 289 291 289 287 284 282 280 279 279 277 276 276 273
249 252 254 258 266 271 276 284 290 289 289 288 291 291 291 292 292 292 291 289 290 292 292 292 292 290 289 289 290 290 291 292 292 290 288 287 285 284 284 282 281 279 277
251 253 257 258 263 267 274 282 283 282 287 288 290 291 291 291 290 290 289 288 289 292 293 293 293 291 290 291 292 293 292 293 293 292 290 289 288 287 286 285 285 283 281
253 255 258 260 263 266 271 278 278 283 284 285 288 289 290 291 293 291 289 288 288 291 292 292 293 292 291 292 291 291 293 294 293 291 291 291 291 290 289 287 286 284 282
257 257 258 263 266 267 268 272 276 282 284 284 284 286 289 290 291 292 291 290 289 291 292 293 293 292 293 293 292 292 293 293 292 292 291 292 292 290 289 288 287 285 284
256 259 261 266 269 269 270 272 277 279 282 284 284 284 286 289 289 288 288 289 290 291 291 293 294 292 291 290 291 291 292 291 291 291 291 291 291 290 289 288 287 286 285
255 257 261 266 267 267 269 274 276 277 280 283 284 284 284 285 285 285 286 287 290 290 291 293 293 291 290 290 290 290 290 290 291 290 290 290 290 290 289 288 287 287 286
257 263 262 265 267 268 269 271 275 278 280 282 282 283 284 284 285 285 287 288 289 289 289 290 292 292 291 291 291 292 292 292 293 292 291 291 290 289 289 289 288 287 286
259 262 263 265 267 269 270 271 274 277 280 282 282 283 282 283 285 285 286 288 289 288 289 290 291 293 293 293 293 293 293 293 293 293 293 293 291 291 291 290 289 288 287
261 262 264 266 268 272 273 272 275 276 278 282 283 282 282 283 283 284 286 287 288 288 289 290 291 292 293 293 293 294 295 295 295 294 294 294 293 292 292 291 290 290 288
Height
5894 5893 5892 5891 5890 5889 5888 5887 5886 5885 5884 5883 5882 5881 5881 5880 5880 5881 5881 5881 5882 5882 5882 5883 5883 5884 5885 5886 5887 5888 5889 5890 5891 5892 5893 5894 5895 5895 5896 5897 5898 5898 5899
5893 5892 5891 5890 5889 5888 5887 5885 5884 5883 5882 5881 5880 5880 5879 5879 5879 5879 5879 5879 5880 5880 5880 5881 5881 5881 5882 5883 5885 5886 5887 5888 5889 5890 5891 5892 5892 5893 5894 5894 5895 5896 5897
5892 5891 5891 5889 5888 5887 5885 5884 5883 5882 5881 5880 5879 5878 5877 5877 5877 5877 5877 5877 5878 5878 5879 5879 5880 5880 5880 5881 5882 5883 5884 5886 5887 5888 5888 5889 5890 5891 5891 5892 5893 5893 5894
5891 5890 5889 5888 5887 5886 5884 5883 5882 5881 5879 5878 5877 5877 5876 5876 5876 5875 5876 5876 5876 5877 5877 5878 5878 5878 5878 5879 5880 5881 5882 5883 5884 5885 5886 5887 5887 5888 5889 5889 5890 5890 5891
5890 5889 5888 5887 5886 5884 5883 5882 5881 5879 5878 5877 5876 5875 5875 5874 5874 5874 5875 5875 5875 5875 5875 5876 5876 5876 5876 5877 5877 5878 5879 5880 5881 5882 5883 5884 5884 5885 5885 5886 5886 5887 5887
5888 5887 5886 5885 5884 5883 5882 5881 5880 5878 5877 5875 5875 5874 5874 5874 5873 5873 5873 5873 5874 5874 5874 5874 5874 5874 5874 5874 5875 5875 5876 5877 5878 5879 5880 5880 5881 5882 5882 5883 5883 5884 5884
5886 5886 5885 5884 5883 5882 5881 5880 5879 5877 5875 5874 5874 5873 5873 5873 5872 5872 5872 5872 5872 5872 5872 5872 5872 5871 5871 5871 5872 5872 5873 5874 5875 5876 5876 5877 5878 5878 5879 5879 5880 5880 5880
5885 5884 5883 5883 5882 5881 5880 5879 5878 5876 5874 5874 5873 5872 5872 5872 5871 5871 5871 5871 5871 5871 5870 5870 5869 5868 5868 5867 5868 5868 5870 5871 5871 5872 5872 5873 5874 5874 5875 5875 5875 5876 5876
5883 5882 5882 5881 5880 5880 5879 5878 5877 5875 5874 5873 5872 5872 5871 5871 5871 5871 5870 5870 5869 5869 5869 5868 5867 5866 5864 5863 5863 5864 5865 5867 5868 5869 5869 5869 5869 5870 5871 5871 5871 5871 5872
5881 5881 5880 5880 5879 5878 5878 5877 5876 5874 5873 5872 5871 5871 5871 5870 5870 5869 5869 5868 5868 5868 5867 5866 5865 5863 5861 5860 5860 5861 5862 5863 5864 5865 5865 5865 5865 5866 5866 5866 5866 5867 5867
5879 5879 5878 5878 5878 5877 5876 5875 5874 5873 5872 5871 5870 5870 5869 5869 5869 5868 5868 5867 5867 5866 5865 5864 5863 5861 5860 5859 5859 5859 5859 5860 5860 5860 5860 5861 5861 5861 5861 5861 5861 5861 5861
5877 5877 5877 5877 5876 5876 5875 5874 5873 5872 5871 5870 5869 5868 5868 5867 5867 5867 5866 5865 5865 5864 5863 5861 5860 5859 5859 5858 5857 5857 5857 5857 5856 5856 5856 5856 5856 5856 5856 5856 5856 5856 5856
5876 5875 5875 5875 5874 5874 5873 5872 5871 5870 5869 5868 5868 5867 5866 5866 5865 5865 5864 5863 5862 5861 5860 5859 5858 5857 5857 5856 5855 5854 5854 5853 5852 5851 5851 5850 5850 5850 5850 5850 5850 5850 5850
5873 5873 5873 5873 5872 5872 5871 5870 5870 5869 5868 5867 5866 5865 5865 5864 5863 5862 5861 5861 5859 5859 5858 5857 5856 5855 5855 5854 5853 5852 5851 5849 5848 5847 5846 5845 5845 5845 5845 5845 5845 5845 5844
5871 5871 5871 5871 5871 5870 5869 5869 5868 5867 5866 5865 5865 5864 5863 5862 5861 5860 5859 5858 5858 5857 5856 5855 5854 5853 5852 5851 5850 5849 5848 5846 5844 5843 5841 5840 5840 5839 5839 5840 5840 5839 5839
5869 5868 5868 5868 5868 5868 5867 5867 5866 5865 5864 5864 5863 5862 5861 5860 5859 5858 5857 5856 5855 5855 5854 5853 5852 5851 5850 5849 5847 5846 5845 5843 5841 5839 5837 5836 5835 5834 5834 5834 5834 5834 5833
5866 5866 5866 5866 5866 5866 5865 5865 5864 5863 5863 5862 5861 5860 5859 5858 5857 5856 5855 5854 5853 5852 5852 5851 5850 5848 5847 5846 5844 5843 5841 5840 5838 5836 5834 5832 5831 5830 5830 5829 5829 5828 5827
5864 5864 5863 5864 5864 5864 5863 5862 5862 5861 5860 5860 5859 5858 5857 5856 5855 5854 5853 5852 5851 5850 5849 5847 5846 5845 5844 5842 5841 5839 5838 5836 5834 5832 5830 5829 5827 5826 5825 5824 5823 5822 5821
5861 5861 5861 5861 5861 5861 5861 5860 5860 5859 5858 5857 5856 5855 5854 5853 5852 5851 5850 5849 5848 5847 5846 5844 5843 5842 5840 5839 5837 5835 5834 5832 5830 5828 5826 5825 5823 5821 5820 5818 5817 5816 5814
5858 5858 5858 5858 5858 5858 5858 5858 5857 5856 5856 5855 5854 5853 5852 5850 5849 5848 5847 5846 5845 5843 5842 5841 5840 5838 5836 5834 5833 5831 5829 5828 5826 5824 5822 5820 5818 5816 5814 5813 5811 5809 5808
5855 5855 5855 5855 5855 5855 5855 5854 5854 5853 5853 5852 5850 5849 5848 5847 5846 5845 5844 5842 5841 5840 5838 5837 5835 5834 5832 5830 5828 5827 5825 5823 5821 5819 5817 5815 5812 5810 5808 5806 5804 5802 5800
5851 5851 5851 5852 5851 5851 5851 5851 5850 5850 5849 5848 5847 5846 5845 5844 5843 5841 5840 5838 5837 5835 5834 5833 5831 5829 5828 5826 5824 5822 5820 5818 5816 5814 5811 5809 5806 5803 5800 5798 5795 5793 5790
5847 5847 5848 5848 5848 5847 5847 5847 5846 5845 5845 5844 5843 5842 5841 5839 5838 5837 5836 5834 5832 5831 5829 5828 5826 5824 5823 5821 5819 5817 5814 5812 5809 5806 5804 5801 5798 5795 5792 5789 5786 5783 5780
5843 5843 5843 5843 5843 5843 5843 5842 5842 5841 5840 5839 5838 5837 5836 5834 5833 5832 5831 5829 5827 5826 5824 5822 5821 5818 5816 5814 5812 5809 5807 5804 5801 5797 5794 5792 5788 5786 5783 5779 5775 5772 5770
5839 5839 5839 5839 5839 5838 5838 5837 5837 5836 5835 5834 5833 5832 5830 5829 5828 5827 5825 5824 5822 5820 5818 5816 5814 5811 5809 5806 5804 5801 5798 5795 5792 5789 5784 5781 5778 5775 5772 5768 5764 5761 5758
5834 5834 5834 5834 5834 5834 5833 5832 5831 5831 5830 5829 5827 5826 5825 5824 5822 5821 5819 5818 5816 5814 5812 5809 5807 5804 5801 5799 5795 5792 5789 5786 5782 5779 5775 5771 5767 5764 5761 5758 5754 5750 5747